Location: Ahstedt
(52.2048°N, 10.1060°E)
Time: 00:21:51
(UTC+00:00)

NOAA 12 - Pass Details

Date: 18 January 2026
Orbit: 792 x 813 km, 98.6° (Epoch: 9 February)

Event Time Altitude Azimuth Distance (km) Brightness Sun altitude
Rises 04:59:42 0° 13° (NNE) 3,307 7.4 -20.7°
Reaches altitude 10° 05:02:02 10° 11° (NNE) 2,373 6.6 -20.3°
Maximum altitude 05:07:14 68° 290° (WNW) 856 4.0 -19.5°
Drops below altitude 10° 05:12:24 10° 208° (SSW) 2,360 6.3 -18.7°
Sets 05:14:44 0° 206° (SSW) 3,288 7.1 -18.4°
